Location: Unspecified
(0.0000°N, 0.0000°E)
Time: 08:00:23
(UTC+00:00)

deb Explorer IX - All Passes

Search period start: 03 April 2020 00:00
Search period end: 13 April 2020 00:00
Orbit: 547 x 1100 km, 38.8° (Epoch: 02 April)

Date Brightness Start Highest point End Pass type
(mag) Time Alt. Az. Time Alt. Az. Time Alt. Az.
03 Apr - 00:51:51 10° NNW 00:57:57 31° NE 01:04:14 10° E night (unlit)
03 Apr - 02:38:17 10° WNW 02:45:25 59° SW 02:52:28 10° SE visible
03 Apr - 04:30:45 10° WSW 04:33:06 12° SW 04:35:25 10° SSW visible
03 Apr - 13:36:37 10° SW 13:40:42 53° SE 13:44:41 10° ENE daylight
03 Apr - 15:25:32 10° WNW 15:27:26 13° NW 15:29:22 10° N daylight
04 Apr - 00:29:19 10° NNW 00:35:23 31° NE 00:41:41 10° E night (unlit)
04 Apr - 02:15:45 10° WNW 02:22:49 58° SW 02:29:55 10° SE night (unlit)
04 Apr - 04:08:14 10° WSW 04:10:34 12° SW 04:12:53 10° SSW visible
04 Apr - 13:14:12 10° SW 13:18:22 55° SE 13:22:22 10° ENE daylight
04 Apr - 15:03:23 10° WNW 15:05:05 12° NW 15:06:48 10° NNW daylight
05 Apr - 00:06:49 10° NNW 00:12:48 32° NE 00:19:06 10° E night (unlit)
05 Apr - 01:53:13 10° WNW 02:00:13 57° SW 02:07:20 10° SE night (unlit)
05 Apr - 03:45:44 10° SW 03:48:01 12° SW 03:50:18 10° SSW visible
05 Apr - 12:51:46 10° SW 12:56:03 58° SE 13:00:04 10° ENE daylight
05 Apr - 14:41:13 10° WNW 14:42:44 12° NW 14:44:14 10° NNW daylight
05 Apr - 23:44:19 10° NNW 23:50:13 32° NE 23:56:31 10° ESE night (unlit)
06 Apr - 01:30:43 10° WNW 01:37:36 55° SW 01:44:44 10° SE night (unlit)
06 Apr - 03:23:18 10° SW 03:25:29 11° SW 03:27:40 10° SSW visible
06 Apr - 12:29:19 10° SW 12:33:42 60° SE 12:37:46 10° ENE daylight
06 Apr - 14:19:03 10° WNW 14:20:22 11° NW 14:21:42 10° NNW daylight
06 Apr - 23:21:51 10° NNW 23:27:39 32° NE 23:33:54 10° ESE night (unlit)
07 Apr - 01:08:13 10° WNW 01:15:00 54° SW 01:22:08 10° SE night (unlit)
07 Apr - 03:00:54 10° SW 03:02:56 11° SW 03:04:58 10° SSW night (unlit)
07 Apr - 12:06:50 10° SW 12:11:22 63° SE 12:15:28 10° ENE daylight
07 Apr - 13:56:50 10° WNW 13:58:00 11° NW 13:59:10 10° NNW daylight
07 Apr - 22:59:24 10° NNW 23:05:04 32° NE 23:11:17 10° ESE night (unlit)
08 Apr - 00:45:45 10° WNW 00:52:24 53° SW 00:59:30 10° SE night (unlit)
08 Apr - 02:38:34 10° SW 02:40:23 11° SW 02:42:11 10° SSW night (unlit)
08 Apr - 11:44:21 10° SW 11:49:01 66° SE 11:53:11 10° ENE daylight
08 Apr - 13:34:35 10° NW 13:35:38 11° NW 13:36:41 10° NNW daylight
08 Apr - 22:36:59 10° NNW 22:42:32 32° NE 22:48:39 10° ESE night (unlit)
09 Apr - 00:23:18 10° WNW 00:29:49 51° SW 00:36:52 10° SE night (unlit)
09 Apr - 02:16:21 10° SW 02:17:50 11° SW 02:19:19 10° SSW night (unlit)
09 Apr - 11:21:49 10° SW 11:26:39 69° SE 11:30:54 10° NE daylight
09 Apr - 13:12:17 10° NW 13:13:16 11° NW 13:14:15 10° NNW daylight
09 Apr - 22:14:33 10° NNW 22:19:59 32° NE 22:26:01 10° ESE night (unlit)
10 Apr - 00:00:52 10° WNW 00:07:14 50° SW 00:14:12 10° SSE night (unlit)
10 Apr - 01:54:20 10° SW 01:55:17 10° SW 01:56:15 10° SSW night (unlit)
10 Apr - 10:59:16 10° SW 11:04:17 73° SE 11:08:37 10° NE daylight
10 Apr - 12:49:55 10° NW 12:50:53 11° NW 12:51:51 10° NNW daylight
10 Apr - 21:52:09 10° NNW 21:57:26 32° NE 22:03:22 10° ESE night (unlit)
10 Apr - 23:38:27 10° WNW 23:44:39 48° SW 23:51:32 10° SSE night (unlit)
11 Apr - 08:53:22 10° SSE 08:54:26 11° SSE 08:55:30 10° SE daylight
11 Apr - 10:36:42 10° SW 10:41:53 75° SE 10:46:20 10° NE daylight
11 Apr - 12:27:29 10° NW 12:28:30 11° NW 12:29:30 10° NNW daylight
11 Apr - 21:29:46 10° NNW 21:34:55 32° NE 21:40:44 10° ESE night (unlit)
11 Apr - 23:16:04 10° WNW 23:22:05 47° SW 23:28:51 10° SSE night (unlit)
12 Apr - 08:30:09 10° SSE 08:32:01 12° SSE 08:33:48 10° SE daylight
12 Apr - 10:14:07 10° SW 10:19:29 78° SE 10:24:04 10° NE daylight
12 Apr - 12:04:59 10° NW 12:06:06 11° NW 12:07:12 10° NNW daylight
12 Apr - 21:07:24 10° NNW 21:12:24 32° NE 21:18:05 10° ESE visible
12 Apr - 22:53:41 10° WNW 22:59:31 45° SW 23:06:09 10° SSE night (unlit)
